| time (UTC) | temp F | wind direction | speed MPH | gust MPH | rain 1hr in | rain 24hr in | rain mn in | humidity % | barometer mb |
| 20260831033059 | 72 | 70 | 1.0 | 4.0 | 0.00 | 0.60 | 0.60 | 90 | 1013.0 |
| 20260831031558 | 72 | 72 | 0.0 | 1.0 | 0.00 | 0.60 | 0.60 | 89 | 1013.3 |
| 20260831030105 | 72 | 0 | 0.0 | 1.0 | 0.00 | 0.60 | 0.60 | 88 | 1013.9 |
| 20260831024602 | 73 | 0 | 0.0 | 5.0 | 0.00 | 0.60 | 0.60 | 87 | 1014.1 |
| 20260831023110 | 72 | 283 | 2.0 | 6.0 | 0.00 | 0.60 | 0.60 | 87 | 1013.5 |
| 20260831021557 | 72 | 282 | 3.0 | 8.0 | 0.00 | 0.60 | 0.60 | 87 | 1014.0 |
| 20260831020115 | 72 | 239 | 3.0 | 7.0 | 0.00 | 0.60 | 0.60 | 87 | 1013.7 |
| 20260831014600 | 72 | 281 | 4.0 | 6.0 | 0.00 | 0.60 | 0.60 | 88 | 1013.8 |
| 20260831013100 | 72 | 274 | 2.0 | 5.0 | 0.00 | 0.60 | 0.60 | 89 | 1013.9 |
| 20260831011607 | 71 | 276 | 2.0 | 6.0 | 0.00 | 0.60 | 0.60 | 89 | 1014.2 |
| 20260831010106 | 71 | 274 | 3.0 | 5.0 | 0.00 | 0.60 | 0.60 | 89 | 1014.2 |
| 20260831004604 | 71 | 250 | 2.0 | 3.0 | 0.00 | 0.60 | 0.60 | 90 | 1013.6 |
| 20260831003105 | 71 | 293 | 2.0 | 3.0 | 0.00 | 0.60 | 0.60 | 91 | 1013.6 |
| 20260831001602 | 71 | 274 | 1.0 | 3.0 | 0.00 | 0.60 | 0.60 | 91 | 1013.5 |
| 20260831000105 | 71 | 278 | 1.0 | 3.0 | 0.00 | 0.60 | 0.60 | 91 | 1013.3 |
| 20260830234615 | 71 | 0 | 0.0 | 2.0 | 0.00 | 0.60 | 0.60 | 91 | 1013.2 |
| 20260830233105 | 72 | 278 | 0.0 | 1.0 | 0.00 | 0.60 | 0.60 | 91 | 1013.1 |
| 20260830231611 | 72 | 0 | 0.0 | 3.0 | 0.00 | 0.60 | 0.60 | 90 | 1013.0 |
| 20260830230105 | 72 | 231 | 1.0 | 3.0 | 0.00 | 0.60 | 0.60 | 91 | 1013.1 |
| 20260830224609 | 72 | 278 | 1.0 | 3.0 | 0.01 | 0.60 | 0.60 | 90 | 1013.2 |
| 20260830223103 | 72 | 280 | 2.0 | 4.0 | 0.01 | 0.60 | 0.60 | 89 | 1013.1 |
| 20260830221605 | 72 | 284 | 1.0 | 5.0 | 0.01 | 0.60 | 0.60 | 89 | 1013.2 |
| 20260830220115 | 72 | 253 | 2.0 | 6.0 | 0.02 | 0.60 | 0.60 | 90 | 1013.1 |
| 20260830214558 | 72 | 277 | 2.0 | 4.0 | 0.02 | 0.58 | 0.58 | 91 | 1013.2 |
| 20260830213126 | 71 | 273 | 1.0 | 4.0 | 0.05 | 0.58 | 0.58 | 92 | 1013.2 |
| 20260830211602 | 71 | 274 | 3.0 | 6.0 | 0.05 | 0.58 | 0.58 | 92 | 1013.1 |
| 20260830210106 | 70 | 246 | 2.0 | 5.0 | 0.05 | 0.58 | 0.58 | 92 | 1013.0 |
| 20260830204602 | 70 | 245 | 0.0 | 2.0 | 0.04 | 0.58 | 0.57 | 92 | 1013.3 |
| 20260830203110 | 70 | 0 | 0.0 | 3.0 | 0.01 | 0.56 | 0.54 | 92 | 1013.4 |
| 20260830201605 | 71 | 274 | 3.0 | 6.0 | 0.03 | 0.56 | 0.54 | 91 | 1013.4 |
| 20260830200104 | 71 | 285 | 2.0 | 6.0 | 0.02 | 0.55 | 0.52 | 90 | 1013.5 |
| 20260830194613 | 71 | 278 | 3.0 | 10.0 | 0.09 | 0.55 | 0.52 | 89 | 1013.7 |
| 20260830193102 | 72 | 252 | 4.0 | 9.0 | 0.09 | 0.55 | 0.52 | 87 | 1013.9 |
| 20260830191601 | 73 | 264 | 3.0 | 9.0 | 0.07 | 0.52 | 0.51 | 85 | 1014.0 |
| 20260830190101 | 74 | 257 | 3.0 | 8.0 | 0.07 | 0.52 | 0.51 | 83 | 1013.9 |
| 20260830184614 | 78 | 271 | 7.0 | 17.0 | 0.00 | 0.46 | 0.44 | 73 | 1013.6 |
| 20260830183103 | 79 | 255 | 7.0 | 11.0 | 0.00 | 0.46 | 0.44 | 70 | 1013.3 |
| 20260830181606 | 79 | 249 | 6.0 | 13.0 | 0.00 | 0.46 | 0.44 | 69 | 1013.3 |
| 20260830180106 | 81 | 284 | 9.0 | 15.0 | 0.00 | 0.46 | 0.44 | 64 | 1013.0 |
| 20260830174603 | 82 | 293 | 6.0 | 13.0 | 0.00 | 0.46 | 0.44 | 63 | 1012.8 |
| 20260830173100 | 83 | 278 | 4.0 | 9.0 | 0.00 | 0.46 | 0.44 | 61 | 1012.4 |
| 20260830171605 | 83 | 260 | 5.0 | 12.0 | 0.00 | 0.46 | 0.44 | 59 | 1012.5 |
| 20260830164604 | 83 | 240 | 6.0 | 12.0 | 0.00 | 0.46 | 0.44 | 60 | 1012.5 |
| 20260830163103 | 83 | 264 | 5.0 | 8.0 | 0.00 | 0.46 | 0.44 | 60 | 1012.6 |
| 20260830161627 | 82 | 257 | 4.0 | 8.0 | 0.00 | 0.46 | 0.44 | 62 | 1012.5 |
| 20260830160103 | 81 | 262 | 4.0 | 7.0 | 0.00 | 0.46 | 0.44 | 64 | 1012.7 |
| 20260830154606 | 81 | 273 | 1.0 | 5.0 | 0.00 | 0.46 | 0.44 | 66 | 1012.8 |
| 20260830153106 | 80 | 260 | 4.0 | 9.0 | 0.00 | 0.46 | 0.44 | 66 | 1012.9 |
| 20260830151612 | 79 | 252 | 2.0 | 6.0 | 0.00 | 0.46 | 0.44 | 69 | 1012.7 |
| 20260830144627 | 76 | 249 | 3.0 | 10.0 | 0.00 | 0.46 | 0.44 | 73 | 1012.6 |
| 20260830143110 | 76 | 0 | 3.0 | 6.0 | 0.00 | 0.46 | 0.44 | 73 | 1012.4 |
| 20260830141559 | 74 | 262 | 1.0 | 4.0 | 0.00 | 0.46 | 0.44 | 77 | 1012.5 |
| 20260830134601 | 72 | 240 | 1.0 | 4.0 | 0.00 | 0.46 | 0.44 | 82 | 1012.7 |
| 20260830133104 | 72 | 288 | 1.0 | 4.0 | 0.00 | 0.46 | 0.44 | 83 | 1012.9 |
| 20260830131601 | 71 | 271 | 1.0 | 3.0 | 0.00 | 0.46 | 0.44 | 85 | 1013.2 |
| 20260830130113 | 70 | 0 | 0.0 | 2.0 | 0.00 | 0.46 | 0.44 | 88 | 1013.3 |
| 20260830124556 | 69 | 0 | 0.0 | 2.0 | 0.00 | 0.46 | 0.44 | 89 | 1013.4 |
| 20260830123101 | 69 | 283 | 0.0 | 3.0 | 0.00 | 0.46 | 0.44 | 88 | 1013.7 |
| 20260830121607 | 69 | 278 | 1.0 | 4.0 | 0.00 | 0.46 | 0.44 | 89 | 1013.6 |
| 20260830114616 | 68 | 281 | 0.0 | 3.0 | 0.00 | 0.46 | 0.44 | 90 | 1013.4 |
| 20260830113104 | 68 | 0 | 1.0 | 2.0 | 0.01 | 0.46 | 0.44 | 91 | 1013.1 |
| 20260830111603 | 68 | 285 | 1.0 | 3.0 | 0.01 | 0.46 | 0.44 | 90 | 1012.9 |
| 20260830104600 | 69 | 284 | 2.0 | 5.0 | 0.01 | 0.46 | 0.44 | 87 | 1012.7 |
| 20260830103105 | 69 | 262 | 2.0 | 7.0 | 0.00 | 0.45 | 0.43 | 87 | 1012.7 |
| 20260830101607 | 68 | 315 | 0.0 | 2.0 | 0.00 | 0.45 | 0.43 | 90 | 1012.8 |
| 20260830100121 | 69 | 264 | 0.0 | 3.0 | 0.02 | 0.45 | 0.43 | 88 | 1012.7 |
| 20260830094612 | 69 | 34 | 1.0 | 3.0 | 0.42 | 0.45 | 0.43 | 88 | 1012.9 |
| 20260830093100 | 70 | 103 | 0.0 | 6.0 | 0.43 | 0.45 | 0.43 | 86 | 1013.1 |
| 20260830091601 | 68 | 47 | 1.0 | 6.0 | 0.43 | 0.45 | 0.43 | 89 | 1013.7 |
| 20260830090113 | 69 | 278 | 3.0 | 10.0 | 0.41 | 0.43 | 0.41 | 86 | 1013.9 |
| 20260830084602 | 73 | 275 | 4.0 | 7.0 | 0.01 | 0.03 | 0.01 | 75 | 1014.3 |
| 20260830083106 | 72 | 257 | 1.0 | 4.0 | 0.00 | 0.02 | 0.00 | 78 | 1013.1 |
| 20260830081637 | 72 | 264 | 0.0 | 3.0 | 0.00 | 0.02 | 0.00 | 79 | 1012.8 |
| 20260830080104 | 72 | 256 | 2.0 | 7.0 | 0.00 | 0.02 | 0.00 | 78 | 1013.0 |
| 20260830074609 | 71 | 276 | 0.0 | 4.0 | 0.00 | 0.02 | 0.00 | 79 | 1013.0 |
| 20260830073101 | 71 | 264 | 1.0 | 3.0 | 0.00 | 0.02 | 0.00 | 79 | 1013.2 |
| 20260830071606 | 71 | 271 | 1.0 | 4.0 | 0.00 | 0.02 | 0.00 | 80 | 1013.8 |
| 20260830070100 | 71 | 293 | 1.0 | 3.0 | 0.00 | 0.02 | 0.00 | 80 | 1014.0 |
| 20260830064601 | 71 | 255 | 0.0 | 3.0 | 0.00 | 0.02 | 0.00 | 80 | 1014.3 |
| 20260830063114 | 71 | 310 | 0.0 | 3.0 | 0.00 | 0.02 | 0.00 | 79 | 1014.5 |
| 20260830061559 | 71 | 283 | 1.0 | 3.0 | 0.00 | 0.02 | 0.00 | 80 | 1014.6 |
| 20260830060059 | 70 | 287 | 0.0 | 2.0 | 0.00 | 0.02 | 0.00 | 81 | 1014.6 |
| 20260830054600 | 71 | 0 | 0.0 | 2.0 | 0.00 | 0.02 | 0.00 | 81 | 1014.7 |
| 20260830053107 | 71 | 0 | 0.0 | 2.0 | 0.00 | 0.02 | 0.00 | 81 | 1014.7 |
| 20260830051608 | 70 | 291 | 1.0 | 4.0 | 0.00 | 0.02 | 0.00 | 82 | 1015.0 |
| 20260830050109 | 69 | 0 | 0.0 | 1.0 | 0.00 | 0.02 | 0.00 | 84 | 1015.0 |
| 20260830044610 | 69 | 0 | 0.0 | 1.0 | 0.00 | 0.02 | 0.02 | 84 | 1015.1 |
| 20260830043113 | 70 | 0 | 0.0 | 1.0 | 0.00 | 0.02 | 0.02 | 83 | 1014.9 |
| 20260830041624 | 70 | 0 | 0.0 | 1.0 | 0.00 | 0.02 | 0.02 | 83 | 1015.0 |
| 20260830040116 | 70 | 0 | 0.0 | 3.0 | 0.00 | 0.02 | 0.02 | 83 | 1015.0 |
| 20260830034606 | 70 | 46 | 0.0 | 1.0 | 0.00 | 0.02 | 0.02 | 83 | 1015.0 |